Tracking 28790 objects as of 18-Apr-2024
HD Live streaming from Space Station
objects crossing your sky now

FENGYUN 1C DEB

Track FENGYUN 1C DEB now!
10-day predictions


NORAD ID: 29758
Int'l Code: 1999-025AY
Perigee: 792.4 km
Apogee: 828.8 km
Inclination: 98.8 °
Period: 100.9 minutes
Semi major axis: 7181 km
RCS: 0.0129 m2 (small)
Launch date: May 10, 1999
Source: People's Republic of China (PRC)
Launch site: Taiyaun Space Center, China (TSC)

Note: This is SATELLITE DEBRIS
Your satellite tracking list
Your tracking list is empty




NASA's NSSDC Master Catalog

Two Line Element Set (TLE):
1 29758U 99025AY  24108.82491578  .00011530  00000-0  47806-2 0  9992
2 29758  98.8475 204.1834 0025293 280.3727 209.2079 14.26499394890148
Source of the keplerian elements: AFSPC